Radiation Dose at Monitoring Post of Fukushima Daini Nuclear Power Station
Date,Time,MP-1(microSv/h),MP-2(microSv/h),MP-3(microSv/h),MP-4(microSv/h),MP-5(microSv/h),MP-6(microSv/h),MP-7(microSv/h),Wind Direction,Wind Velocity(m/s),Rain
2024/05/14,00:00,0.138,0.123,0.198,0.185,0.200,0.109,0.074,north-northwest,3.7,No
2024/05/14,00:10,0.139,0.124,0.196,0.184,0.199,0.109,0.073,northwest,4.2,No
2024/05/14,00:20,0.139,0.123,0.196,0.183,0.199,0.109,0.073,northwest,4.9,No
2024/05/14,00:30,0.138,0.122,0.196,0.183,0.201,0.109,0.073,north-northwest,4.6,No
2024/05/14,00:40,0.138,0.122,0.195,0.184,0.198,0.110,0.073,north-northwest,5.8,No
2024/05/14,00:50,0.139,0.123,0.196,0.184,0.200,0.109,0.072,north-northwest,5.5,No
2024/05/14,01:00,0.138,0.123,0.197,0.184,0.201,0.109,0.073,northwest,5.8,No
2024/05/14,01:10,0.139,0.123,0.197,0.183,0.199,0.109,0.073,northwest,5.8,No
2024/05/14,01:20,0.138,0.122,0.196,0.184,0.200,0.109,0.073,northwest,5.9,No
2024/05/14,01:30,0.138,0.122,0.197,0.184,0.198,0.109,0.073,northwest,5.5,No
2024/05/14,01:40,0.137,0.122,0.196,0.183,0.200,0.110,0.073,west-northwest,4.9,No
2024/05/14,01:50,0.138,0.122,0.196,0.184,0.199,0.109,0.072,northwest,5.4,No
2024/05/14,02:00,0.137,0.122,0.196,0.184,0.199,0.108,0.073,northwest,5.6,No
2024/05/14,02:10,0.138,0.122,0.196,0.185,0.200,0.109,0.072,northwest,5.5,No
2024/05/14,02:20,0.139,0.122,0.196,0.185,0.199,0.108,0.072,northwest,5.7,No
2024/05/14,02:30,0.139,0.123,0.197,0.183,0.200,0.110,0.073,northwest,6.0,No
2024/05/14,02:40,0.138,0.121,0.197,0.184,0.200,0.109,0.072,northwest,6.3,No
2024/05/14,02:50,0.139,0.122,0.196,0.183,0.199,0.109,0.072,northwest,6.6,No
2024/05/14,03:00,0.138,0.122,0.196,0.184,0.200,0.110,0.073,northwest,6.0,No
2024/05/14,03:10,0.138,0.121,0.196,0.184,0.198,0.108,0.073,north-northwest,5.5,No
2024/05/14,03:20,0.138,0.123,0.196,0.184,0.200,0.109,0.073,northwest,5.9,No
2024/05/14,03:30,0.139,0.122,0.198,0.183,0.198,0.109,0.073,north-northwest,5.1,No
2024/05/14,03:40,0.140,0.123,0.196,0.185,0.200,0.110,0.073,northwest,5.1,No
2024/05/14,03:50,0.138,0.123,0.196,0.183,0.200,0.109,0.073,north-northwest,3.7,No
2024/05/14,04:00,0.139,0.123,0.198,0.184,0.198,0.109,0.073,north-northwest,3.0,No
2024/05/14,04:10,0.139,0.122,0.198,0.183,0.200,0.109,0.073,northwest,2.2,No
2024/05/14,04:20,0.138,0.123,0.196,0.183,0.199,0.109,0.072,-,CALM,No
2024/05/14,04:30,0.139,0.122,0.197,0.185,0.200,0.110,0.072,west-northwest,2.9,No
2024/05/14,04:40,0.139,0.121,0.198,0.185,0.201,0.109,0.073,west,2.6,No
2024/05/14,04:50,0.138,0.123,0.197,0.184,0.199,0.110,0.072,west-southwest,1.5,No
2024/05/14,05:00,0.139,0.121,0.198,0.186,0.200,0.110,0.072,west-northwest,1.8,No
2024/05/14,05:10,0.138,0.122,0.197,0.184,0.199,0.110,0.072,northwest,1.8,No
2024/05/14,05:20,0.139,0.122,0.196,0.184,0.198,0.109,0.073,northwest,4.2,No
2024/05/14,05:30,0.139,0.123,0.197,0.184,0.200,0.110,0.073,northwest,4.4,No
2024/05/14,05:40,0.138,0.122,0.197,0.184,0.200,0.110,0.072,northwest,4.1,No
2024/05/14,05:50,0.139,0.123,0.196,0.185,0.199,0.109,0.072,north-northwest,4.5,No
2024/05/14,06:00,0.140,0.122,0.198,0.186,0.201,0.109,0.073,north-northwest,4.4,No
2024/05/14,06:10,0.139,0.122,0.198,0.184,0.199,0.110,0.073,north-northwest,4.6,No
2024/05/14,06:20,0.139,0.122,0.198,0.184,0.200,0.109,0.072,north-northwest,4.7,No
2024/05/14,06:30,0.140,0.123,0.198,0.184,0.198,0.109,0.072,northwest,5.5,No
2024/05/14,06:40,0.140,0.123,0.197,0.183,0.200,0.110,0.073,north-northwest,5.2,No
2024/05/14,06:50,0.140,0.122,0.196,0.184,0.200,0.110,0.073,north-northwest,4.8,No
2024/05/14,07:00,0.138,0.122,0.198,0.185,0.199,0.109,0.073,north-northwest,4.5,No
2024/05/14,07:10,0.140,0.122,0.197,0.183,0.201,0.109,0.074,northwest,4.8,No
2024/05/14,07:20,0.139,0.123,0.197,0.184,0.199,0.110,0.073,north-northwest,3.9,No
2024/05/14,07:30,0.139,0.123,0.196,0.183,0.201,0.110,0.073,north-northwest,3.6,No
2024/05/14,07:40,0.139,0.123,0.197,0.184,0.199,0.109,0.073,north-northwest,3.6,No
2024/05/14,07:50,0.140,0.122,0.196,0.184,0.200,0.110,0.072,north,3.4,No
2024/05/14,08:00,0.139,0.122,0.197,0.184,0.198,0.110,0.074,north,4.1,No
2024/05/14,08:10,0.140,0.123,0.197,0.185,0.201,0.109,0.072,north,4.5,No
2024/05/14,08:20,0.140,0.122,0.198,0.184,0.199,0.110,0.072,north,5.0,No
2024/05/14,08:30,0.140,0.124,0.197,0.184,0.200,0.110,0.073,north,4.9,No
2024/05/14,08:40,0.139,0.123,0.198,0.185,0.199,0.109,0.073,north,4.5,No
2024/05/14,08:50,0.140,0.123,0.197,0.184,0.201,0.110,0.073,north,4.0,No
2024/05/14,09:00,0.139,0.124,0.199,0.182,0.199,0.110,0.073,north,4.5,No
2024/05/14,09:10,0.140,0.123,0.198,0.182,0.201,0.110,0.073,north,5.2,No
2024/05/14,09:20,0.140,0.123,0.198,0.183,0.201,0.111,0.073,north,4.7,No
2024/05/14,09:30,0.140,0.123,0.198,0.185,0.201,0.110,0.073,north,4.5,No
2024/05/14,09:40,0.139,0.123,0.198,-,0.200,0.110,0.073,north,4.9,No
2024/05/14,09:50,0.140,0.123,0.197,-,0.200,0.109,0.073,north,4.9,No
2024/05/14,10:00,0.139,0.123,0.198,-,0.200,0.110,0.073,north,5.0,No
2024/05/14,10:10,0.139,0.124,0.197,-,0.199,0.110,0.073,north,5.5,No
2024/05/14,10:20,0.140,0.123,0.199,-,0.200,0.111,0.073,north,5.3,No
2024/05/14,10:30,0.139,0.123,0.199,-,0.200,0.110,0.073,north,4.6,No
2024/05/14,10:40,0.140,0.123,0.199,-,0.202,0.111,0.074,north,4.6,No
2024/05/14,10:50,0.140,0.124,0.199,-,0.200,0.110,0.073,north,4.1,No
2024/05/14,11:00,0.140,0.122,0.198,-,0.201,0.110,0.073,north,3.8,No
2024/05/14,11:10,0.139,0.124,0.199,-,0.201,0.111,0.073,north-northeast,3.7,No
2024/05/14,11:20,0.141,0.123,0.197,-,0.200,0.110,0.074,north-northeast,3.4,No
2024/05/14,11:30,0.139,0.124,0.199,-,0.202,0.110,0.073,north,3.6,No
2024/05/14,11:40,0.141,0.122,0.198,-,0.201,0.112,0.073,north,2.9,No
2024/05/14,11:50,0.140,0.124,0.200,-,0.202,0.110,0.073,north,2.6,No
2024/05/14,12:00,0.140,0.123,0.199,-,0.201,0.111,0.073,north,1.8,No
2024/05/14,12:10,0.141,0.123,0.197,-,0.200,0.110,0.074,north-northwest,2.5,No
2024/05/14,12:20,0.139,0.123,0.200,-,0.203,0.110,0.074,north,2.7,No
2024/05/14,12:30,0.140,0.123,0.198,-,0.200,0.110,0.072,north,3.1,No
2024/05/14,12:40,0.141,0.124,0.197,-,0.198,0.110,0.073,north,3.5,No
2024/05/14,12:50,0.139,0.123,0.199,-,0.201,0.110,0.073,north,4.2,No
2024/05/14,13:00,0.141,0.123,0.201,-,0.201,0.110,0.072,north,2.5,No
2024/05/14,13:10,0.140,0.123,0.199,-,0.199,0.111,0.073,north,3.7,No
2024/05/14,13:20,0.141,0.123,0.199,-,0.199,0.112,0.073,north,3.1,No
2024/05/14,13:30,0.140,0.124,0.198,-,0.202,0.111,0.073,north-northeast,3.7,No
2024/05/14,13:40,0.140,0.124,0.201,-,0.201,0.111,0.073,north-northeast,3.2,No
2024/05/14,13:50,0.141,0.123,0.200,-,0.199,0.111,0.073,northeast,2.5,No
2024/05/14,14:00,0.141,0.124,0.199,-,0.200,0.112,0.073,northeast,1.4,No
2024/05/14,14:10,0.139,0.123,0.197,-,0.201,0.111,0.073,north-northeast,2.2,No
2024/05/14,14:20,0.142,0.124,0.201,-,0.201,0.110,0.073,northeast,0.8,No
2024/05/14,14:30,0.141,0.124,0.200,-,0.200,0.111,0.073,northeast,2.1,No
2024/05/14,14:40,0.140,0.124,0.199,-,0.199,0.111,0.073,northeast,2.0,No
2024/05/14,14:50,0.141,0.124,0.199,-,0.203,0.111,0.073,northeast,2.1,No
2024/05/14,15:00,0.141,0.124,0.202,-,0.201,0.111,0.073,northeast,2.2,No
2024/05/14,15:10,0.139,0.124,0.199,-,0.201,0.111,0.073,northeast,2.8,No
2024/05/14,15:20,0.142,0.123,0.199,-,0.199,0.111,0.073,northeast,2.6,No
2024/05/14,15:30,0.140,0.125,0.201,-,0.201,0.111,0.073,northeast,2.3,No
2024/05/14,15:40,0.141,0.123,0.200,-,0.204,0.112,0.073,east-northeast,2.8,No
2024/05/14,15:50,0.142,0.124,0.201,-,0.201,0.111,0.074,northeast,2.6,No
2024/05/14,16:00,0.140,0.124,0.202,-,0.200,0.112,0.074,east-northeast,2.4,No
2024/05/14,16:10,0.141,0.124,0.202,-,0.200,0.112,0.074,northeast,1.7,No
2024/05/14,16:20,0.142,0.124,0.201,0.189,0.203,0.112,0.073,north-northeast,2.2,No
2024/05/14,16:30,0.140,0.125,0.202,0.189,0.201,0.111,0.073,north-northeast,2.6,No
2024/05/14,16:40,0.141,0.124,0.201,0.190,0.201,0.112,0.073,north-northeast,2.5,No
2024/05/14,16:50,0.141,0.125,0.202,0.189,0.199,0.111,0.074,north-northeast,2.4,No
2024/05/14,17:00,0.141,0.125,0.201,0.190,0.203,0.111,0.074,north-northeast,2.2,No
2024/05/14,17:10,0.141,0.125,0.203,0.189,0.201,0.112,0.074,north-northeast,1.4,No
2024/05/14,17:20,0.141,0.123,0.201,0.190,0.202,0.111,0.073,north,1.6,No
2024/05/14,17:30,0.142,0.125,0.202,0.189,0.203,0.112,0.073,north-northeast,1.3,No
2024/05/14,17:40,0.141,0.125,0.201,0.189,0.202,0.112,0.074,north-northeast,1.2,No
2024/05/14,17:50,0.141,0.124,0.203,0.189,0.203,0.112,0.074,north,1.3,No
2024/05/14,18:00,0.142,0.124,0.201,0.189,0.203,0.112,0.074,north,0.9,No
2024/05/14,18:10,0.141,0.124,0.200,0.189,0.205,0.112,0.073,north,0.8,No
2024/05/14,18:20,0.142,0.124,0.202,0.188,0.202,0.112,0.073,north,1.0,No
2024/05/14,18:30,0.141,0.125,0.202,0.190,0.203,0.112,0.074,north,0.6,No
2024/05/14,18:40,0.141,0.124,0.201,0.190,0.202,0.112,0.073,north-northeast,0.7,No
2024/05/14,18:50,0.141,0.124,0.202,0.190,0.203,0.111,0.073,north,1.2,No
2024/05/14,19:00,0.142,0.124,0.201,0.189,0.202,0.112,0.073,north,1.2,No
2024/05/14,19:10,0.141,0.126,0.202,0.190,0.203,0.111,0.074,north-northwest,1.1,No
2024/05/14,19:20,0.142,0.124,0.202,0.191,0.203,0.112,0.073,northwest,2.0,No
2024/05/14,19:30,0.141,0.123,0.201,0.189,0.202,0.111,0.073,northwest,1.8,No
2024/05/14,19:40,0.140,0.124,0.202,0.190,0.203,0.111,0.073,northwest,2.0,No
2024/05/14,19:50,0.142,0.125,0.202,0.190,0.202,0.112,0.073,northwest,2.0,No
2024/05/14,20:00,0.141,0.126,0.201,0.189,0.203,0.112,0.073,northwest,1.8,No
2024/05/14,20:10,0.142,0.125,0.201,0.190,0.203,0.111,0.073,north-northwest,1.6,No
2024/05/14,20:20,0.141,0.124,0.201,0.190,0.202,0.111,0.074,northwest,0.9,No
2024/05/14,20:30,0.141,0.125,0.201,0.189,0.201,0.111,0.074,northwest,1.3,No
2024/05/14,20:40,0.140,0.124,0.202,0.189,0.202,0.113,0.074,northwest,1.4,No
2024/05/14,20:50,0.142,0.124,0.202,0.189,0.203,0.111,0.074,north-northwest,1.2,No
2024/05/14,21:00,0.141,0.126,0.202,0.189,0.202,0.111,0.074,west-northwest,1.1,No
2024/05/14,21:10,0.142,0.124,0.202,0.190,0.202,0.111,0.074,northwest,1.1,No
2024/05/14,21:20,0.141,0.123,0.202,0.189,0.204,0.112,0.074,northwest,1.2,No
2024/05/14,21:30,0.141,0.124,0.201,0.189,0.201,0.112,0.073,northwest,1.4,No
2024/05/14,21:40,0.142,0.124,0.202,0.190,0.203,0.111,0.074,northwest,1.1,No
2024/05/14,21:50,0.142,0.124,0.202,0.189,0.202,0.111,0.073,west-northwest,1.8,No
2024/05/14,22:00,0.141,0.125,0.202,0.189,0.201,0.112,0.073,northwest,1.9,No
2024/05/14,22:10,0.141,0.124,0.200,0.189,0.203,0.111,0.073,northwest,1.6,No
2024/05/14,22:20,0.142,0.124,0.202,0.190,0.202,0.112,0.074,west-northwest,1.6,No
2024/05/14,22:30,0.141,0.124,0.201,0.189,0.204,0.112,0.073,northwest,1.4,No
2024/05/14,22:40,0.141,0.125,0.201,0.189,0.201,0.112,0.073,northwest,1.3,No
2024/05/14,22:50,0.141,0.124,0.201,0.190,0.203,0.112,0.073,northwest,1.1,No
2024/05/14,23:00,0.141,0.124,0.202,0.190,0.203,0.112,0.073,northwest,0.9,No
2024/05/14,23:10,0.141,0.124,0.201,0.190,0.202,0.112,0.073,northwest,0.8,No
2024/05/14,23:20,0.141,0.125,0.201,0.190,0.203,0.111,0.073,west-northwest,0.6,No
2024/05/14,23:30,0.141,0.125,0.201,0.190,0.202,0.112,0.073,-,CALM,No
2024/05/14,23:40,0.141,0.125,0.202,0.190,0.202,0.112,0.073,-,CALM,No
2024/05/14,23:50,0.141,0.124,0.201,0.189,0.203,0.112,0.074,-,CALM,No
